Yasemin — 9HA2114 — position and weather

sailwx.info

Track history (hours):
 
Tides and Currents Weather Stations Pressure Air Temp Water Temp Dewpoint Dewpoint Depression Visibility Wind Speed Wind Dir Waves Ship Positions

Yasemin

Last reported at 2014-Nov-29 03:28 UTC. Time now 2014-Nov-29 03:40 UTC.
Position N 41°01' E 001°17'.

Length 105 m; draft 6.4 m.

Type: Cargo ship. MMSI: 249988000.

Date/timePositionNaut miles runAvg speedWind from/ knotsBaromVisibWave heightAir tempDewpointWater temp
2014-Nov-29 03:28N 41°01' E 001°17'  
2014-Nov-25 03:17N 40°58' E 001°31'1013.6
2014-Nov-25 02:34N 40°54' E 001°43'1313.1
2014-Nov-25 01:33N 40°50' E 001°59'1212.3
2014-Nov-25 00:33N 40°46' E 002°15'1212.2
2014-Nov-24 23:33N 40°41' E 002°30'1212.4
2014-Nov-24 22:34N 40°37' E 002°45'1212.4
2014-Nov-24 21:33N 40°32' E 003°00'1212.3
2014-Nov-24 20:33N 40°28' E 003°15'1711.6
2014-Nov-24 19:03N 40°21' E 003°36'813.1
2014-Nov-24 18:25N 40°18' E 003°46'21112.5
2014-Nov-24 01:28N 39°01' E 008°02'2513.1
2014-Nov-23 23:33N 38°52' E 008°32'1313.4
2014-Nov-23 22:33N 38°49' E 008°49'1313.3
2014-Nov-23 21:33N 38°48' E 009°06'1512.8
2014-Nov-23 20:22N 38°47' E 009°25'16212.6
2014-Nov-23 07:34N 38°30' E 012°51'1212.1
2014-Nov-23 06:33N 38°29' E 013°07'1212.3
2014-Nov-23 05:33N 38°28' E 013°22'1212.2
2014-Nov-23 04:33N 38°26' E 013°38'10910.6
2014-Nov-22 18:14N 37°52' E 015°50'38910.8
2014-Nov-21 06:17N 37°26' E 023°60'1013.4
2014-Nov-21 05:33N 37°34' E 024°06'1413.5
2014-Nov-21 04:33N 37°44' E 024°17'1313.1
2014-Nov-21 03:33N 37°53' E 024°29'  
Track history (hours):
 
Tides and Currents Weather Stations Pressure Air Temp Water Temp Dewpoint Dewpoint Depression Visibility Wind Speed Wind Dir Waves Ship Positions

Yasemin

Last reported at 2014-Nov-29 03:28 UTC. Time now 2014-Nov-29 03:40 UTC.
Position N 41°01' E 001°17'.

Length 105 m; draft 6.4 m.

Type: Cargo ship. MMSI: 249988000.

Date/timePositionNaut miles runAvg speedWind from/ knotsBaromVisibWave heightAir tempDewpointWater temp
2014-Nov-29 03:28N 41°01' E 001°17'  
2014-Nov-25 03:17N 40°58' E 001°31'1013.6
2014-Nov-25 02:34N 40°54' E 001°43'1313.1
2014-Nov-25 01:33N 40°50' E 001°59'1212.3
2014-Nov-25 00:33N 40°46' E 002°15'1212.2
2014-Nov-24 23:33N 40°41' E 002°30'1212.4
2014-Nov-24 22:34N 40°37' E 002°45'1212.4
2014-Nov-24 21:33N 40°32' E 003°00'1212.3
2014-Nov-24 20:33N 40°28' E 003°15'1711.6
2014-Nov-24 19:03N 40°21' E 003°36'813.1
2014-Nov-24 18:25N 40°18' E 003°46'21112.5
2014-Nov-24 01:28N 39°01' E 008°02'2513.1
2014-Nov-23 23:33N 38°52' E 008°32'1313.4
2014-Nov-23 22:33N 38°49' E 008°49'1313.3
2014-Nov-23 21:33N 38°48' E 009°06'1512.8
2014-Nov-23 20:22N 38°47' E 009°25'16212.6
2014-Nov-23 07:34N 38°30' E 012°51'1212.1
2014-Nov-23 06:33N 38°29' E 013°07'1212.3
2014-Nov-23 05:33N 38°28' E 013°22'1212.2
2014-Nov-23 04:33N 38°26' E 013°38'10910.6
2014-Nov-22 18:14N 37°52' E 015°50'38910.8
2014-Nov-21 06:17N 37°26' E 023°60'1013.4
2014-Nov-21 05:33N 37°34' E 024°06'1413.5
2014-Nov-21 04:33N 37°44' E 024°17'1313.1
2014-Nov-21 03:33N 37°53' E 024°29'  

Dump ship's entire track history